Date,TemperatureHighF,TemperatureAvgF,TemperatureLowF,DewpointHighF,DewpointAvgF,DewpointLowF,HumidityHigh,HumidityAvg,HumidityLow,PressureMaxIn,PressureMinIn,WindSpeedMaxMPH,WindSpeedAvgMPH,GustSpeedMaxMPH,PrecipitationSumIn
2013-4-1,83,71,61,68,62,57,94,77,51,29.95,29.88,12,2,20,0.00
2013-4-2,84,72,62,66,60,56,94,71,39,30.01,29.92,7,2,11,0.01
2013-4-3,87,73,59,69,62,56,94,72,39,29.99,29.85,7,2,15,0.01
2013-4-4,72,69,65,68,66,62,95,90,83,30.00,29.77,8,1,15,2.51
2013-4-5,74,68,62,68,61,55,93,79,55,29.88,29.74,11,5,16,0.22
2013-4-6,80,67,58,60,55,53,83,67,40,30.01,29.89,9,2,13,0.00
2013-4-7,84,70,59,63,58,53,92,67,35,30.06,29.95,9,2,14,0.00
2013-4-8,86,74,61,63,58,52,89,62,32,30.03,29.93,7,1,10,0.00
2013-4-9,85,73,60,66,61,57,91,69,42,30.05,29.96,9,3,14,0.00
2013-4-10,89,74,61,68,63,58,92,71,45,30.01,29.85,10,2,21,0.00
2013-4-11,88,77,69,74,69,64,93,77,51,29.90,29.72,8,2,13,0.20
2013-4-12,81,76,72,74,71,67,94,85,72,29.83,29.72,9,3,16,0.04
2013-4-13,89,76,68,71,66,64,91,73,47,29.88,29.78,5,1,9,0.00
2013-4-14,88,77,68,72,68,61,91,75,53,29.91,29.75,17,3,24,0.00
2013-4-15,92,77,66,72,65,61,83,69,47,29.97,29.84,8,1,12,0.00
2013-4-16,92,79,67,72,67,65,93,71,44,30.03,29.92,9,3,14,0.00
2013-4-17,88,76,66,69,63,56,92,66,35,30.03,29.91,9,2,12,0.00
2013-4-18,87,77,65,70,66,62,92,71,50,29.95,29.84,8,2,11,0.00
2013-4-19,88,78,70,74,68,63,94,73,45,29.91,29.82,10,3,16,0.08
2013-4-20,79,72,66,70,65,61,91,79,63,30.03,29.87,6,1,11,0.20
2013-4-21,85,72,61,68,63,57,89,75,55,30.02,29.89,9,3,11,0.01
2013-4-22,79,70,67,70,67,63,95,88,73,29.98,29.87,5,1,10,1.13
2013-4-23,85,74,66,66,63,59,89,71,45,30.00,29.90,10,4,14,0.01
2013-4-24,86,72,59,66,61,56,93,70,38,30.03,29.96,8,2,12,0.01
2013-4-25,88,74,62,69,63,57,90,71,39,30.10,29.99,9,1,13,0.00